Regional Weather Roundup
Issued by NWS

Home | Current Version | Previous Version | Graphics & Text | Print | Product List | Glossary On
Versions: 1 2 3 4 5 6 7 8 9 10 11 12 13 14 15 16 17 18 19 20 21 22 23 24 25 26 27 28 29 30 31 32 33 34 35 36 37 38 39 40 41 42 43 44 45 46 47 48 49 50
000
ASUS45 KBOU 280107
RWRCO

WEATHER ROUNDUP FOR COLORADO
NATIONAL WEATHER SERVICE DENVER/BOULDER CO
700 PM MDT WED AUG 27 2014

NOTE: "FAIR" INDICATES FEW OR NO CLOUDS BELOW 12000 FEET WITH NO
SIGNIFICANT WEATHER AND/OR OBSTRUCTIONS TO VISIBILITY.

COZ001>005-013-030-031-280200-
...NORTHWEST COLORADO...

CITY           SKY/WX    TMP DP  RH WIND       PRES   REMARKS
CRAIG          MOCLDY    57  48  72 CALM      30.26S
HAYDEN         CLOUDY    54  46  76 S6        30.28S
MEEKER         LGT RAIN  54  49  83 SE3       30.29S
MOUNT WERNER   NOT AVBL
STEAMBOAT SPGS MOCLDY    54  49  82 SE5       30.29R
WALDEN         PTCLDY    50  45  81 SE3       30.32S
$$

COZ006>008-011-280200-
...WEST CENTRAL VALLEYS...

CITY           SKY/WX    TMP DP  RH WIND       PRES   REMARKS
GRAND JUNCTION CLOUDY    62  53  72 N6        30.22R
MONTROSE       CLOUDY    63  45  51 SE9       30.29F
EAGLE          MOCLDY    61  46  59 W10       30.28F
RIFLE          LGT RAIN  61  53  75 SE6       30.24R
DELTA          RAIN      66  47  50 SE6       30.25F
NUCLA          CLOUDY    59  48  67 E9        30.33R
$$

COZ017>023-064>068-280200-
...SOUTHWEST COLORADO...

CITY           SKY/WX    TMP DP  RH WIND       PRES   REMARKS
DURANGO        NOT AVBL
CORTEZ         NOT AVBL
PAGOSA SPRINGS MOCLDY    64  37  36 SW10G16   30.35R
TELLURIDE      CLOUDY    46  43  87 E8        30.48F
WOLF CREEK PAS CLOUDY    37  37 100 SW18G32   30.55S THUNDER
$$

COZ009-010-012-014-032>034-037-058>063-280200-
...CENTRAL COLORADO...

CITY           SKY/WX    TMP DP  RH WIND       PRES   REMARKS
ASPEN          MOCLDY    53  45  74 SE6       30.33F
BUENA VISTA    MOCLDY    58  41  53 CALM      30.32R
COPPER MTN     MOCLDY    41  36  81 SW6       30.54F THUNDER
BERTHOUD PASS  FOG       32  32 100 NW14      30.55F VSB<1/4 WCI  22
COTTONWOOD PAS MOCLDY    52  34  50 W17G26    30.41F
GUNNISON       MOCLDY    55  37  50 N5        30.38R
KREMMLING      CLOUDY    61  34  36 SW7       30.31F
LEADVILLE      MOCLDY    46  36  68 N10       30.43R
MONARCH PASS   MOCLDY    39  34  81 W21G32    30.65R
SALIDA         CLOUDY    61  41  46 SW18G24   30.35S
SUNLIGHT       TSTM      43  41  93 CALM      30.48F
WILKERSON PASS NOT AVBL
$$

COZ069>075-280200-
...SAN LUIS VALLEY/SANGRE DE CRISTO MOUNTAINS...

CITY           SKY/WX    TMP DP  RH WIND       PRES   REMARKS
ALAMOSA        PTCLDY    63  37  38 W18G25    30.27R
LA VETA PASS   NOT AVBL
SAGUACHE       MOCLDY    55  39  54 NW26G37   30.35R
$$

COZ035-036-038>040-280200-
...NORTHERN COLORADO FRONT RANGE...

CITY           SKY/WX    TMP DP  RH WIND       PRES   REMARKS
DENVER INTL AP MOCLDY    67  53  61 N15       30.10R
DMNS CITY PARK   N/A     69  53  56 N3G14     30.12R
AURORA         MOCLDY    66  53  63 NE9       30.13R
FRONT RANGE AP NOT AVBL
ERIE MUNI ARPT CLOUDY    66  56  68 W7        30.12R
BOULDER MUN AP CLOUDY    68  54  60 CALM      30.14R
CENTENNIAL     PTCLDY    66  51  58 N9        30.14R
BROOMFIELD     NOT AVBL
FORT COLLINS   MOCLDY    64  55  72 N5        30.11R
LONGMONT       LGT RAIN  68  56  66 CALM      30.14R
$$

COZ041-046-047-076>085-087-088-280200-
...PIKES PEAK/PALMER DIVIDE AND SOUTHERN FOOTHILLS...

CITY           SKY/WX    TMP DP  RH WIND       PRES   REMARKS
COLO. SPRINGS  MOCLDY    77  42  28 N9        30.11S
A. F. ACADEMY  MOCLDY    68  51  55 N9        30.14R
ELLICOTT       MOCLDY    75  46  35 S6        30.09S
FALCON         MOCLDY    69  52  55 N8        30.17S
FORT CARSON    DRIZZLE   77  41  27 W2        30.08S
LIMON          MOCLDY    71  50  47 NW23G29   30.06S
MONUMENT HILL  PTCLDY    61  54  77 NE5       30.19R
TRINIDAD       MOCLDY    79  43  27 W18       30.09R
$$

COZ042>045-048>051-090-091-280200-
...NORTHEAST COLORADO...

CITY           SKY/WX    TMP DP  RH WIND       PRES   REMARKS
GREELEY ARPT   MOCLDY    68  50  52 N12       30.08F
AKRON          MOCLDY    69  60  73 NE18      30.03S
BURLINGTON     CLEAR     78  62  57 SE7       30.00F
WRAY             N/A     77  64  63 SE12      29.98S
STERLING       PTCLDY    73  63  68 NE10      30.01F
HOLYOKE        PTCLDY    73  68  83 NE7       30.00S THUNDER
FORT MORGAN    CLOUDY    61  58  90 N26G39    30.10R THUNDER
$$

COZ086-089-092>099-280200-
...SOUTHEAST COLORADO...

CITY           SKY/WX    TMP DP  RH WIND       PRES   REMARKS
PUEBLO         MOCLDY    81  51  35 S8        29.97F
LA JUNTA       TSTM      76  57  51 SW32G43   30.01R SQUALL
LAMAR          CLEAR     84  57  39 S8        29.93S
SPRINGFIELD      N/A     77  56  48 S12       30.02S
$$


USA.gov is the U.S. government's official web portal to all federal, state and local government web resources and services.